Theta_e
318 321 321 323 328 327 326 325 323 324 323 321 321 320 320 319 321 325 325 329 329 334 338 336 337 340 340 339 339 339 339 339 338 337 337 336 336 335 335 338 338 338 335 336 333 331 329 328 327
321 320 322 324 326 326 322 322 323 322 321 320 320 320 320 321 321 324 327 330 329 333 340 336 338 339 339 339 339 338 338 339 338 338 337 337 337 336 334 336 336 337 335 333 330 324 322 322 322
319 319 324 325 324 323 322 322 321 322 320 321 321 322 321 321 320 325 329 330 329 332 341 338 340 339 339 339 338 333 334 336 336 336 335 334 334 333 332 334 334 333 332 331 327 323 320 318 318
321 321 320 320 323 321 320 319 319 319 320 320 320 319 320 320 322 324 326 330 329 330 341 341 340 340 340 337 336 333 332 337 336 335 335 334 332 330 331 331 331 331 330 328 324 320 316 313 310
320 321 322 323 322 319 318 318 320 320 321 321 320 320 319 319 321 321 327 330 329 331 338 341 341 341 339 337 336 335 332 331 334 335 335 333 331 330 329 330 330 330 329 325 322 317 310 304 301
321 318 321 323 320 319 319 320 320 320 321 318 319 318 320 319 319 320 327 330 330 330 334 337 340 340 341 339 338 336 334 331 335 335 334 332 330 329 328 327 329 329 325 322 320 312 303 300 300
321 323 322 321 320 319 320 319 319 318 317 319 319 318 318 318 319 320 324 328 331 330 331 334 335 337 340 339 338 336 335 333 335 336 333 332 329 329 328 326 327 325 322 320 318 308 301 300 299
320 320 320 320 319 320 318 319 318 318 317 318 318 316 320 319 318 319 322 325 329 331 332 333 335 332 337 337 336 335 335 334 336 335 332 332 329 327 327 324 324 322 320 319 315 307 301 300 299
320 320 320 320 320 319 317 317 318 318 317 316 316 317 318 318 317 320 322 324 327 330 332 333 334 335 331 332 332 333 334 335 336 334 332 331 327 324 326 322 320 320 319 317 314 307 301 299 298
320 322 321 319 317 317 316 315 315 316 315 315 315 316 318 318 318 319 321 324 326 328 331 333 334 335 335 334 335 333 334 335 335 333 332 330 328 325 324 319 318 316 318 316 314 307 300 299 300
321 321 319 318 318 318 317 315 315 315 315 315 314 314 314 317 316 317 318 320 322 325 328 331 333 334 335 334 334 334 333 334 333 332 330 328 327 325 321 318 316 316 317 313 312 302 298 300 300
319 319 319 319 318 318 317 316 316 315 315 315 314 314 314 314 313 316 317 318 318 320 325 328 330 333 334 334 333 332 331 331 329 330 329 328 327 325 320 317 316 315 316 312 307 302 298 299 300
317 318 318 317 316 316 317 317 316 316 314 314 314 314 314 313 314 317 316 317 318 318 319 325 327 329 332 333 333 332 331 330 328 329 327 327 327 324 319 317 316 315 314 311 308 303 299 299 298
316 316 316 315 315 315 315 315 316 314 313 313 313 313 312 312 313 315 316 316 316 317 317 319 325 326 329 331 331 331 330 330 331 329 325 326 327 323 318 316 315 315 314 310 309 304 299 298 298
315 315 314 314 314 314 315 314 314 313 313 313 313 312 311 312 314 313 315 315 315 316 316 316 321 325 326 328 329 330 329 329 329 329 328 329 326 322 318 314 315 315 314 310 308 301 299 298 298
315 314 315 316 316 314 314 314 314 313 312 312 311 310 311 311 312 314 313 313 313 314 316 316 317 321 325 325 326 328 328 328 328 328 327 326 325 321 316 314 313 313 312 309 305 300 299 298 298
314 314 315 316 316 315 314 315 314 313 312 312 312 311 311 311 310 310 309 309 310 311 312 315 316 318 321 324 324 325 326 326 326 326 326 324 323 320 315 313 311 311 310 308 302 299 298 298 297
316 316 316 316 316 314 314 313 313 313 313 313 313 311 311 309 308 307 305 306 307 308 309 311 312 316 317 320 322 323 324 324 324 323 323 322 319 318 314 311 310 309 308 305 301 299 298 298 298
315 314 315 315 315 314 314 315 314 313 313 313 312 311 311 308 306 305 304 304 304 304 305 307 308 310 312 316 317 320 321 321 322 321 320 319 318 316 314 310 308 307 306 304 300 298 297 298 298
314 314 314 314 315 314 313 314 313 313 313 312 311 309 308 306 305 304 303 302 302 302 303 304 306 307 309 310 314 315 317 318 319 319 318 317 316 314 313 310 306 305 303 301 299 298 298 298 297
314 315 315 314 313 313 312 312 313 313 313 310 309 307 306 305 304 304 303 302 301 301 300 301 302 303 305 307 309 311 313 312 312 313 314 315 315 313 311 310 307 304 302 301 298 298 297 297 296
314 313 313 313 312 312 310 311 313 313 312 309 307 306 304 303 303 302 301 301 300 300 300 299 299 301 302 304 306 307 308 307 307 308 308 310 312 312 310 308 306 304 302 301 299 298 297 297 297
315 311 312 311 311 312 312 313 314 314 310 309 307 305 304 302 302 301 300 300 299 298 298 297 297 298 298 300 302 302 303 303 304 304 305 304 306 307 308 307 306 304 302 300 299 298 297 297 296
311 310 310 310 311 316 316 316 317 313 310 308 307 306 304 303 301 301 300 299 298 298 297 296 296 296 296 297 297 298 298 299 300 301 302 302 302 302 303 303 304 304 302 301 299 298 298 297 297
310 311 317 320 316 319 317 319 318 317 309 308 307 305 303 301 300 299 298 298 297 296 296 295 294 293 294 294 295 295 296 296 297 297 298 299 300 301 301 301 300 301 302 301 300 298 298 297 297
312 318 320 322 322 320 315 317 319 311 308 307 305 303 302 300 299 299 298 297 297 296 294 294 292 292 292 292 293 293 293 294 294 294 295 296 296 297 297 298 300 299 299 300 299 299 297 297 296
318 320 318 322 315 319 316 315 313 310 309 307 305 302 300 298 298 298 298 296 294 294 293 293 291 290 290 290 291 291 290 290 291 291 292 292 293 293 294 295 296 297 298 298 298 298 297 297 296
314 312 319 317 316 309 313 313 313 313 311 307 303 300 298 297 296 296 297 295 293 292 292 291 290 289 289 289 289 289 288 287 287 287 287 287 288 291 292 292 293 294 295 296 296 296 296 296 296
310 311 311 313 314 315 315 312 311 311 311 306 302 300 298 296 294 293 293 295 293 290 289 289 289 288 287 287 288 288 287 286 285 285 285 285 285 285 286 289 291 291 291 293 294 294 295 295 295
310 312 313 318 315 314 315 315 309 305 303 302 301 300 297 295 292 291 292 291 292 290 288 288 287 287 287 286 286 286 286 285 285 284 284 284 285 284 284 284 285 287 290 291 291 292 293 294 294
Wind_Speed
6 9 9 7 1 3 3 5 1 8 5 3 2 3 4 6 4 0 7 10 12 18 18 25 24 23 20 18 17 16 13 12 12 11 9 8 7 8 8 9 9 8 5 4 3 2 3 3 4
2 8 6 3 2 2 3 2 8 5 3 2 3 4 4 2 5 8 7 10 12 20 19 27 24 23 21 20 18 18 18 15 13 13 11 11 8 7 8 6 6 4 3 2 1 1 2 3 3
5 6 2 2 3 4 3 4 5 2 6 2 3 1 2 3 6 4 5 11 14 19 19 26 26 24 22 21 20 18 17 15 14 14 12 9 8 9 6 8 8 6 3 4 2 1 1 1 1
6 4 3 1 5 4 5 6 8 7 4 4 4 7 4 5 2 5 7 10 15 18 16 22 25 26 24 23 20 19 19 19 16 13 12 8 8 6 9 9 8 7 5 4 2 1 2 2 2
5 3 3 3 7 2 2 6 3 4 4 3 4 4 5 5 7 5 8 11 15 18 18 20 22 25 25 24 22 20 19 18 18 16 15 12 10 9 7 7 8 8 7 5 4 3 3 3 1
3 1 3 5 6 5 4 6 4 5 2 5 1 5 2 10 8 7 8 10 14 18 19 18 23 25 25 25 24 22 21 19 20 18 18 17 12 10 8 7 8 9 8 7 6 4 3 3 4
2 1 5 6 7 6 3 3 3 6 7 3 3 3 2 5 7 7 9 10 13 15 20 18 19 25 28 25 24 23 22 20 23 22 21 20 15 11 10 10 10 10 8 8 6 6 5 5 5
3 1 5 3 4 6 5 2 2 4 6 2 2 4 2 3 4 4 5 8 12 15 18 22 19 23 30 29 26 25 24 22 23 22 22 20 16 14 13 12 12 10 10 10 8 7 6 5 5
2 2 4 7 3 3 6 3 2 2 3 6 6 5 6 11 6 5 6 9 12 16 19 20 21 21 27 27 28 26 25 24 24 23 23 20 18 16 14 14 13 11 11 10 9 8 7 5 5
2 3 4 6 8 7 10 8 8 5 9 8 7 12 22 13 12 11 12 14 18 19 22 24 25 25 24 25 24 27 26 26 26 25 22 18 19 15 15 14 15 14 15 13 11 10 7 6 5
5 4 7 9 10 7 7 9 7 8 9 10 10 12 8 6 14 14 16 19 21 24 24 27 26 27 26 27 25 25 28 28 25 25 24 20 18 17 15 16 17 17 17 15 14 12 10 7 6
7 9 9 10 8 2 4 8 10 11 11 11 12 11 9 10 9 10 18 22 22 21 28 28 29 28 29 27 27 26 27 30 29 26 26 23 22 21 22 21 21 21 20 17 16 12 12 11 11
7 9 10 10 8 7 7 9 8 21 14 12 14 13 10 9 10 15 19 20 20 23 22 28 30 30 28 29 28 27 25 25 31 29 29 27 27 26 25 24 22 23 21 20 18 16 15 14 13
7 8 9 9 14 13 11 9 3 14 11 15 11 10 9 10 12 17 14 16 16 21 24 22 28 31 31 31 31 29 28 25 27 31 31 31 29 29 28 26 23 24 23 23 22 19 17 15 13
7 6 10 12 12 9 5 7 9 16 10 9 9 9 10 8 17 12 17 19 23 24 24 23 25 29 32 32 29 29 27 27 27 26 28 32 32 30 28 27 26 25 24 24 22 19 17 16 14
7 6 5 6 8 4 8 8 11 10 8 11 14 11 9 11 12 18 20 20 19 13 14 17 20 23 26 28 28 26 23 25 26 26 28 31 34 29 28 29 30 28 26 25 23 21 20 19 17
7 5 10 11 10 5 6 5 8 10 10 12 19 13 9 10 14 27 32 30 27 23 17 5 15 20 21 23 22 22 24 22 24 22 26 28 32 33 29 30 30 30 30 29 27 25 23 20 17
7 11 11 13 8 7 7 9 10 9 9 14 13 10 8 11 16 27 33 32 27 23 19 14 10 13 16 18 18 18 20 21 19 22 22 24 27 30 29 30 30 32 32 30 29 28 25 23 20
5 8 11 10 9 12 14 15 9 9 16 19 14 10 4 15 18 28 30 30 32 32 27 21 15 10 4 7 10 13 12 14 18 16 18 20 23 28 31 29 29 33 36 36 33 29 27 23 22
10 11 12 8 7 7 10 16 19 19 17 15 7 14 14 15 16 20 24 26 28 29 30 28 22 17 7 3 4 4 6 10 13 16 17 17 20 24 28 30 27 30 33 32 34 35 31 24 31
11 11 10 8 7 6 9 7 8 8 3 17 16 16 17 15 13 12 20 24 26 29 30 29 27 22 16 8 4 1 4 1 1 3 9 14 17 18 23 28 29 28 33 35 35 37 33 28 33
9 8 2 5 4 3 7 5 6 15 4 14 13 14 11 10 10 11 17 23 26 29 28 29 27 25 22 15 12 8 6 4 3 6 8 12 16 19 19 25 28 29 30 34 36 38 40 33 28
4 3 3 5 4 5 7 5 5 7 10 9 9 10 9 8 8 10 15 19 22 25 27 26 28 28 23 19 16 15 14 10 6 7 3 2 9 14 21 21 25 29 28 32 33 36 39 38 34
3 3 9 7 5 2 3 4 4 4 8 6 8 9 9 8 8 10 17 17 20 22 23 26 27 28 28 26 23 17 13 12 12 13 11 8 9 12 15 18 23 25 29 30 33 33 37 41 38
2 3 4 1 1 5 7 4 4 3 10 13 13 10 9 8 7 7 9 16 20 26 28 25 28 27 25 23 23 24 20 16 15 14 14 12 12 10 13 16 17 21 27 28 30 34 36 40 43
4 1 3 5 3 4 6 5 5 7 13 13 12 10 8 8 7 7 11 15 17 19 21 21 23 24 23 22 20 20 20 20 22 21 17 16 15 14 12 12 17 17 20 26 28 30 35 38 43
4 2 3 2 3 2 5 5 7 14 11 10 10 9 8 7 7 7 11 12 13 14 14 15 16 17 19 19 20 21 22 21 20 19 20 20 18 18 18 16 15 15 18 22 25 30 32 35 38
2 4 1 1 3 4 6 4 7 7 10 10 8 8 7 6 6 5 8 11 11 12 11 11 10 12 14 17 18 18 19 19 19 21 23 22 21 20 20 20 16 16 18 20 23 27 31 32 36
2 2 4 1 3 3 8 6 7 6 6 11 8 6 6 5 4 4 9 10 12 10 9 9 9 12 14 13 11 12 14 17 20 24 24 25 24 23 21 20 20 19 18 19 22 25 28 33 34
6 9 7 7 6 4 11 15 5 7 8 8 6 6 5 5 5 5 6 7 7 7 9 8 8 7 9 12 11 10 11 15 17 20 19 21 23 24 23 22 19 19 19 18 19 25 26 29 34
Wind_Direction
338 336 308 290 263 206 281 79 5 27 45 40 4 4 301 272 280 319 156 183 146 167 183 180 180 179 180 178 175 170 172 175 176 154 162 158 150 143 131 142 149 141 137 116 125 179 109 101 83
340 310 264 273 251 271 71 88 75 52 30 359 243 252 240 355 69 126 142 178 154 170 187 181 182 184 183 181 180 180 175 181 178 167 168 164 159 145 146 162 170 161 177 152 155 91 82 87 97
330 294 284 290 283 11 13 90 79 76 124 238 302 151 301 354 90 101 127 172 155 170 190 184 185 186 187 185 187 185 181 182 182 182 182 186 185 192 164 179 183 195 193 150 169 126 315 297 267
303 217 258 267 307 17 10 354 33 326 101 110 351 294 130 85 93 129 146 170 160 177 187 188 193 189 192 194 196 192 185 185 191 194 183 183 187 186 177 184 191 187 180 158 167 238 286 282 278
236 263 275 227 258 95 355 5 71 310 303 159 148 299 322 106 139 132 145 166 169 179 184 195 202 197 199 200 199 200 201 198 195 194 187 191 188 182 179 181 186 184 171 173 170 233 253 265 208
280 203 278 264 0 2 63 58 360 267 292 106 212 260 237 141 135 158 163 173 176 184 189 203 201 206 203 205 205 207 207 204 200 200 198 197 194 197 203 184 182 174 177 167 175 197 189 143 109
245 298 262 308 303 295 120 77 282 356 321 314 112 294 287 135 136 164 168 184 185 195 194 202 211 210 207 211 215 214 211 210 205 204 208 213 204 202 206 191 184 180 176 168 179 170 162 138 120
318 322 281 276 286 322 103 101 43 320 309 212 51 252 55 155 167 169 185 193 201 201 208 203 218 212 208 211 216 217 218 216 211 210 213 218 214 208 204 202 197 185 177 176 177 172 167 150 132
291 292 274 284 307 270 120 166 131 266 262 280 194 224 201 182 189 180 207 215 214 211 212 208 209 215 211 213 215 216 218 216 213 216 220 222 222 221 210 215 207 194 185 177 176 177 181 157 144
234 237 261 321 340 327 330 348 335 330 294 283 292 248 235 202 191 195 208 215 216 219 215 212 210 209 212 211 215 215 212 212 213 218 224 229 230 223 220 218 202 199 198 186 177 190 181 172 144
209 227 284 310 329 17 340 310 296 284 277 263 280 312 319 257 202 210 226 236 229 224 219 216 214 212 210 209 210 216 216 213 215 218 219 217 219 207 215 213 206 201 205 199 191 197 178 166 173
254 251 272 288 284 314 284 307 306 282 256 277 281 282 281 281 273 241 233 232 236 237 224 219 218 215 212 211 211 214 216 218 215 217 213 216 211 209 209 212 210 208 209 207 212 202 194 197 196
258 255 258 285 285 276 284 269 279 281 277 266 268 273 276 276 276 257 263 270 242 232 234 223 218 214 214 214 212 213 213 215 217 218 215 215 214 207 209 209 213 210 210 205 211 207 205 203 199
305 339 310 284 274 268 263 267 287 276 277 279 267 275 274 263 248 253 248 255 251 248 238 235 220 217 212 213 212 213 211 211 218 220 215 212 213 209 213 210 209 205 211 200 211 211 206 203 201
342 323 285 271 259 244 154 297 234 255 287 278 283 282 277 284 307 284 253 243 246 246 241 227 228 221 213 213 216 214 215 212 216 211 209 209 209 210 215 209 203 204 210 208 211 207 204 203 203
276 252 281 265 264 155 114 271 284 292 7 325 306 287 301 302 308 311 12 25 18 6 233 224 224 226 220 215 216 216 219 218 217 212 208 209 211 213 214 209 207 207 209 212 209 204 201 204 204
234 261 271 284 273 130 162 245 275 298 293 283 274 281 285 284 25 38 35 31 25 19 18 225 215 219 223 223 222 221 216 221 220 219 214 214 214 213 211 211 211 209 209 210 206 205 207 202 201
280 297 311 310 315 307 261 248 252 266 284 271 283 292 299 67 51 41 32 26 26 32 38 34 34 222 217 217 224 227 223 219 223 219 220 218 217 217 212 211 211 211 210 211 207 208 205 205 199
314 309 298 298 307 299 285 289 308 285 272 287 291 292 25 71 60 49 41 31 28 30 27 31 37 36 160 196 218 226 221 222 220 224 228 226 225 219 218 216 212 211 212 212 207 203 200 193 190
297 286 284 279 284 325 320 300 290 277 269 265 294 61 66 61 50 45 43 39 32 29 32 32 35 47 61 71 177 210 225 235 230 224 229 230 231 222 222 221 218 217 216 216 209 201 190 189 190
272 271 291 313 343 303 300 282 269 281 17 74 65 71 62 56 47 40 36 37 37 33 34 34 36 41 41 43 70 116 228 9 75 242 237 240 240 232 225 226 223 223 222 221 217 211 202 191 193
277 261 320 301 335 235 45 282 327 281 77 81 75 68 56 57 59 51 42 38 33 31 38 39 40 41 41 46 36 42 50 60 358 298 261 245 243 238 239 232 231 228 230 227 226 220 216 206 195
262 10 280 254 244 306 233 249 245 235 107 103 91 86 75 67 62 58 53 51 44 42 42 40 44 44 41 46 47 37 28 15 7 23 55 298 271 258 248 241 240 235 238 234 230 225 220 215 213
11 296 269 257 218 284 238 212 304 92 156 123 110 96 91 74 64 60 57 51 47 45 45 45 41 38 40 40 39 39 30 18 15 11 2 328 289 278 268 267 254 248 241 241 236 233 228 225 222
84 329 308 276 119 212 51 3 258 347 171 153 132 109 92 79 62 51 44 38 33 33 33 32 35 33 36 35 38 35 34 29 29 20 6 349 346 312 277 272 273 258 252 252 247 237 234 230 227
174 339 191 265 320 308 2 236 246 84 81 91 98 100 80 68 65 60 49 46 46 42 34 29 27 28 25 27 36 31 34 36 36 29 18 4 351 331 314 323 274 275 265 255 254 252 244 241 236
141 191 75 39 234 211 232 276 289 116 105 110 107 94 90 77 65 67 70 66 57 51 46 39 32 26 22 22 30 27 26 28 31 30 29 20 9 348 327 301 301 294 278 264 258 256 254 248 245
188 111 43 175 260 240 261 281 265 94 138 124 108 102 98 94 87 92 102 97 80 67 56 45 43 38 30 27 22 21 24 23 24 28 24 16 10 2 354 349 328 306 294 282 267 262 258 257 251
156 195 210 253 203 252 275 257 96 86 109 129 128 123 125 131 113 81 56 53 65 53 54 55 45 27 20 20 18 19 17 17 17 23 14 6 3 3 2 357 346 332 315 297 282 270 265 259 256
275 266 266 247 254 243 257 258 26 109 119 124 139 144 127 79 69 72 75 65 56 49 33 23 27 31 13 5 359 2 7 9 10 14 5 355 350 351 352 352 351 343 328 317 299 288 277 267 260